Location: Ferchesar
(52.6477°N, 12.4298°E)
Time: 13:40:07
(UTC+01:00)

A-11 Canister half - Visible Passes

Search period start: 07 March 2021 00:00
Search period end: 17 March 2021 00:00
Orbit: 1516 x 1684 km, 47.2° (Epoch: 06 March)

Date Brightness Start Highest point End Pass type
(mag) Time Alt. Az. Time Alt. Az. Time Alt. Az.
13 Mar 11.2 05:53:33 10° S 06:00:21 21° SE 06:07:10 10° E visible
14 Mar 11.2 05:31:04 10° S 05:37:33 19° SE 05:44:03 10° E visible
15 Mar 11.1 05:08:36 10° SSE 05:14:45 18° SE 05:20:54 10° E visible
16 Mar 11.1 04:46:12 10° SSE 04:51:57 17° SE 04:57:43 10° E visible
